{"data":{"norad_id":44961,"intl_designator":"2020-001AZ","name":"STARLINK-1080","alt_names":[],"object_type":"PAYLOAD","status":"ACTIVE","operator":null,"country":"US","launch_date":"2020-01-07","launch_site_code":"AFETR","launch_vehicle":null,"mission":null,"orbit_class":"UNKNOWN","rcs_meters":null,"size_class":null,"mass_kg":null,"dimensions":null,"purposes":["comms"],"wikipedia_slug":null,"has_3d_model":false,"image_url":null,"decayed_at":null,"tle_current":{"epoch":"2026-05-25T06:00:02.000160Z","epoch_age_seconds":54279,"freshness":"FRESH","line1":"1 44961U 20001AZ  26145.25002315  .00575496  00000+0  52430-2 0  9994","line2":"2 44961  53.0453 278.6980 0001247  73.4390  79.5097 15.65566223  5830","mean_motion":15.65566223,"eccentricity":0.0001247,"inclination_deg":53.0453,"raan_deg":278.698,"arg_perigee_deg":73.439,"mean_anomaly_deg":79.5097,"bstar":0.005243,"rev_number":583,"period_min":91.979501016611,"perigee_km":370.76910761632,"apogee_km":372.45249471793,"semimajor_km":6749.7478011671,"source":"CELESTRAK","updated_at":"2026-05-25T13:38:16.376258Z"}}}